Date String (YYYY-MM-DD hh:mm:ss) UTC,Instrument flags,absolute air pressure of the measurement (hPa),sample flow rate (lpm),inlet stack bypass flow (lpm),air temperature of the measurement (°C),ambient temperature measured by the external sensor (°C),aerosol sample conditioner tube jacket temperature (°C),OPC LED temperature (°C),internal box temperature (°C),relative humidity of the measurement (%),span deviation,mass concentration of particles derived from Lorenz-Mie calculation of OPC scattering (μg/m³),mass concentration of particles derived from Lorenz-Mie calculation of OPC scattering (μg/m³),mass concentration of particles derived from Lorenz-Mie calculation of OPC scattering (μg/m³)
DateTimeUTC,F1_M11,P_M11,Q1_M11,Q2_M11,T1_M11,T2_M11,T3_M11,T4_M11,T5_M11,U1_M11,ZSPAN_M11,X2_M11,X0_M11,X1_M11
2023-09-09 04:00:00,SystemResetWarning,0835.1,4.99,000.00,028.0,026.3,000.0,036.3,029.5,10.8,0000.0,0002.04,0009.30,0001.22
2023-09-09 04:01:00,SystemResetWarning,0835.1,5.00,000.00,028.0,026.5,000.0,036.3,029.6,10.5,0000.0,0001.88,0008.45,0001.15
2023-09-09 04:02:00,SystemResetWarning,0835.1,5.00,000.00,028.0,026.7,000.0,036.3,029.7,10.5,0000.0,0001.77,0007.63,0001.07
2023-09-09 04:03:00,SystemResetWarning,0835.2,5.00,000.00,028.1,026.9,000.0,036.4,029.7,10.7,0000.0,0001.63,0007.30,0000.99
2023-09-09 04:04:00,SystemResetWarning,0835.1,5.00,000.00,028.1,027.0,000.0,036.4,029.8,10.8,0000.0,0001.59,0007.27,0000.95
2023-09-09 04:05:00,SystemResetWarning,0835.1,4.99,000.00,028.2,027.1,000.0,036.4,029.8,10.7,0000.0,0001.57,0007.49,0000.92
2023-09-09 04:06:00,SystemResetWarning,0835.1,5.00,000.00,028.2,026.9,000.0,036.4,029.9,10.8,0000.0,0001.53,0008.01,0000.91
2023-09-09 04:07:00,SystemResetWarning,0835.1,4.99,000.00,028.2,025.3,000.0,036.3,029.6,11.1,0000.0,0001.50,0007.57,0000.89
2023-09-09 04:08:00,SystemResetWarning,0835.1,5.01,000.00,028.1,024.7,000.0,036.3,029.5,11.1,0000.0,0001.52,0007.26,0000.89
2023-09-09 04:09:00,SystemResetWarning,0835.1,5.01,000.00,028.0,024.8,000.0,036.3,029.4,11.0,0000.0,0001.44,0007.66,0000.86
2023-09-09 04:10:00,SystemResetWarning,0835.1,5.00,000.00,028.0,025.1,000.0,036.3,029.3,11.3,0000.0,0001.50,0007.79,0000.87
2023-09-09 04:11:00,SystemResetWarning,0835.1,4.99,000.00,027.9,025.5,000.0,036.3,029.4,11.6,0000.0,0001.57,0007.61,0000.89
2023-09-09 04:12:00,SystemResetWarning,0835.2,5.00,000.00,028.0,025.8,000.0,036.3,029.4,11.4,0000.0,0001.56,0006.92,0000.87
2023-09-09 04:13:00,SystemResetWarning,0835.2,5.00,000.00,028.0,026.1,000.0,036.3,029.5,11.4,0000.0,0001.50,0005.93,0000.84
2023-09-09 04:14:00,SystemResetWarning,0835.3,5.00,000.00,028.0,026.4,000.0,036.3,029.6,10.9,0000.0,0001.50,0005.93,0000.83
2023-09-09 04:15:00,SystemResetWarning,0835.3,5.00,000.00,028.0,026.6,000.0,036.4,029.7,10.9,0000.0,0001.49,0005.98,0000.81
2023-09-09 04:16:00,SystemResetWarning,0835.3,5.00,000.00,028.1,026.8,000.0,036.4,029.7,11.0,0000.0,0001.42,0005.62,0000.78
2023-09-09 04:17:00,SystemResetWarning,0835.3,5.00,000.00,028.1,026.9,000.0,036.4,029.8,10.9,0000.0,0001.34,0004.69,0000.73
2023-09-09 04:18:00,SystemResetWarning,0835.3,5.00,000.00,028.1,027.1,000.0,036.4,029.8,10.9,0000.0,0001.29,0004.02,0000.70
2023-09-09 04:19:00,SystemResetWarning,0835.3,5.01,000.00,028.2,027.2,000.0,036.5,029.9,11.1,0000.0,0001.21,0003.67,0000.66
2023-09-09 04:20:00,SystemResetWarning,0835.2,4.99,000.00,028.2,026.7,000.0,036.4,029.8,10.9,0000.0,0001.18,0002.63,0000.63
2023-09-09 04:21:00,SystemResetWarning,0835.2,4.99,000.00,028.2,025.1,000.0,036.4,029.6,10.8,0000.0,0001.06,0002.32,0000.59
2023-09-09 04:22:00,SystemResetWarning,0835.2,5.01,000.00,028.1,024.7,000.0,036.3,029.6,10.9,0000.0,0000.94,0002.63,0000.53
2023-09-09 04:23:00,SystemResetWarning,0835.2,5.01,000.00,028.1,024.8,000.0,036.3,029.4,10.7,0000.0,0000.95,0003.03,0000.52
2023-09-09 04:24:00,SystemResetWarning,0835.2,5.00,000.00,028.0,025.2,000.0,036.3,029.3,10.8,0000.0,0000.95,0004.29,0000.53
2023-09-09 04:25:00,SystemResetWarning,0835.2,5.00,000.00,028.0,025.5,000.0,036.3,029.4,10.9,0000.0,0000.94,0004.50,0000.53
2023-09-09 04:26:00,SystemResetWarning,0835.2,5.00,000.00,028.0,025.9,000.0,036.3,029.4,10.9,0000.0,0000.93,0004.63,0000.53
2023-09-09 04:27:00,SystemResetWarning,0835.3,4.99,000.00,028.0,026.2,000.0,036.4,029.5,10.6,0000.0,0000.96,0004.93,0000.52
2023-09-09 04:28:00,SystemResetWarning,0835.2,5.00,000.00,028.0,026.4,000.0,036.4,029.6,10.6,0000.0,0000.99,0005.32,0000.53
2023-09-09 04:29:00,SystemResetWarning,0835.2,5.00,000.00,028.1,026.6,000.0,036.4,029.6,10.3,0000.0,0001.01,0005.36,0000.53
2023-09-09 04:30:00,SystemResetWarning,0835.3,5.00,000.00,028.1,026.8,000.0,036.4,029.7,10.3,0000.0,0001.03,0005.37,0000.53
2023-09-09 04:31:00,SystemResetWarning,0835.3,5.00,000.00,028.1,027.0,000.0,036.4,029.8,10.1,0000.0,0001.05,0005.45,0000.54
2023-09-09 04:32:00,SystemResetWarning,0835.3,5.01,000.00,028.2,027.1,000.0,036.5,029.8,9.9,0000.0,0001.12,0005.56,0000.56
2023-09-09 04:33:00,SystemResetWarning,0835.3,5.00,000.00,028.2,027.2,000.0,036.5,029.9,9.9,0000.0,0001.19,0005.30,0000.58
2023-09-09 04:34:00,SystemResetWarning,0835.3,4.99,000.00,028.2,027.3,000.0,036.5,029.9,9.9,0000.0,0001.20,0004.80,0000.59
2023-09-09 04:35:00,SystemResetWarning,0835.3,4.99,000.00,028.3,026.7,000.0,036.5,029.9,9.8,0000.0,0001.23,0004.07,0000.62
2023-09-09 04:36:00,SystemResetWarning,0835.3,5.01,000.00,028.2,025.1,000.0,036.4,029.6,9.7,0000.0,0001.30,0004.22,0000.64
2023-09-09 04:37:00,SystemResetWarning,0835.3,5.01,000.00,028.2,024.7,000.0,036.4,029.6,9.8,0000.0,0001.36,0004.77,0000.67
2023-09-09 04:38:00,SystemResetWarning,0835.3,5.01,000.00,028.1,024.9,000.0,036.4,029.4,9.8,0000.0,0001.38,0004.74,0000.70
2023-09-09 04:39:00,SystemResetWarning,0835.3,5.00,000.00,028.0,025.2,000.0,036.4,029.4,9.8,0000.0,0001.38,0004.73,0000.72
2023-09-09 04:40:00,SystemResetWarning,0835.3,5.00,000.00,028.0,025.5,000.0,036.4,029.4,9.8,0000.0,0001.37,0005.01,0000.75
2023-09-09 04:41:00,SystemResetWarning,0835.3,4.99,000.00,028.0,025.9,000.0,036.4,029.5,9.8,0000.0,0001.41,0005.19,0000.81
2023-09-09 04:42:00,SystemResetWarning,0835.3,5.00,000.00,028.0,026.1,000.0,036.4,029.6,9.7,0000.0,0001.52,0005.48,0000.90
2023-09-09 04:43:00,SystemResetWarning,0835.3,5.00,000.00,028.1,026.4,000.0,036.4,029.6,9.8,0000.0,0001.60,0005.82,0000.98
2023-09-09 04:44:00,SystemResetWarning,0835.3,5.00,000.00,028.1,026.6,000.0,036.4,029.7,9.7,0000.0,0001.64,0005.97,0001.05
2023-09-09 04:45:00,SystemResetWarning,0835.3,5.00,000.00,028.1,026.8,000.0,036.5,029.7,9.7,0000.0,0001.74,0006.96,0001.10
2023-09-09 04:46:00,SystemResetWarning,0835.2,4.99,000.00,028.2,026.9,000.0,036.5,029.8,9.7,0000.0,0001.87,0007.65,0001.16
2023-09-09 04:47:00,SystemResetWarning,0835.3,5.00,000.00,028.2,027.0,000.0,036.5,029.8,9.6,0000.0,0001.92,0007.69,0001.22
2023-09-09 04:48:00,SystemResetWarning,0835.3,4.99,000.00,028.2,027.1,000.0,036.5,029.9,9.5,0000.0,0001.96,0007.92,0001.27
2023-09-09 04:49:00,SystemResetWarning,0835.3,5.00,000.00,028.3,027.1,000.0,036.5,029.9,9.5,0000.0,0001.98,0008.06,0001.29
2023-09-09 04:50:00,SystemResetWarning,0835.3,5.00,000.00,028.2,025.6,000.0,036.5,029.7,9.5,0000.0,0002.05,0008.01,0001.32
2023-09-09 04:51:00,SystemResetWarning,0835.3,5.01,000.00,028.2,024.7,000.0,036.4,029.6,9.6,0000.0,0002.09,0008.77,0001.34
2023-09-09 04:52:00,SystemResetWarning,0835.2,5.01,000.00,028.1,024.8,000.0,036.4,029.5,9.6,0000.0,0002.10,0008.74,0001.32
2023-09-09 04:53:00,SystemResetWarning,0835.2,5.00,000.00,028.0,025.0,000.0,036.4,029.4,9.6,0000.0,0002.04,0008.69,0001.28
2023-09-09 04:54:00,SystemResetWarning,0835.3,5.00,000.00,028.0,025.4,000.0,036.4,029.4,9.7,0000.0,0002.01,0008.62,0001.23
2023-09-09 04:55:00,SystemResetWarning,0835.3,5.01,000.00,028.0,025.7,000.0,036.4,029.5,9.7,0000.0,0001.97,0008.87,0001.19
2023-09-09 04:56:00,SystemResetWarning,0835.3,5.01,000.00,028.0,026.0,000.0,036.4,029.5,9.7,0000.0,0001.91,0008.54,0001.16
2023-09-09 04:57:00,SystemResetWarning,0835.3,4.99,000.00,028.1,026.3,000.0,036.4,029.6,9.6,0000.0,0001.82,0008.48,0001.12
2023-09-09 04:58:00,SystemResetWarning,0835.3,4.99,000.00,028.1,026.5,000.0,036.4,029.6,9.7,0000.0,0001.77,0008.29,0001.07
2023-09-09 04:59:00,SystemResetWarning,0835.3,5.00,000.00,028.1,026.7,000.0,036.4,029.7,9.6,0000.0,0001.73,0007.67,0001.03
